Location: Newark
(49.8348°N, 24.0280°E)
Time: 14:13:29
(UTC+00:00)

Explorer 7 - Pass Details

Date: 20 January 2020
Orbit: 485 x 679 km, 50.3° (Epoch: 28 February)

Event Time Altitude Azimuth Distance (km) Brightness Sun altitude
Rises 04:50:36 0° 284° (WNW) 2,631 - -12.8°
Reaches altitude 10° 04:52:58 10° 273° (W) 1,769 - -12.5°
Exits shadow 04:54:05 16° 262° (W) 1,420 8.4 -12.3°
Maximum altitude 04:56:24 28° 214° (SSW) 1,049 8.1 -12.0°
Drops below altitude 10° 05:00:01 10° 155° (SSE) 1,859 10.2 -11.4°
Sets 05:02:34 0° 144° (SE) 2,793 11.4 -11.0°
